Date String (YYYY-MM-DD hh:mm:ss) UTC,Instrument flags,absolute air pressure of the measurement (hPa),sample flow rate (lpm),inlet stack bypass flow (lpm),air temperature of the measurement (°C),ambient temperature measured by the external sensor (°C),aerosol sample conditioner tube jacket temperature (°C),OPC LED temperature (°C),internal box temperature (°C),relative humidity of the measurement (%),span deviation,mass concentration of particles derived from Lorenz-Mie calculation of OPC scattering (μg/m³),mass concentration of particles derived from Lorenz-Mie calculation of OPC scattering (μg/m³),mass concentration of particles derived from Lorenz-Mie calculation of OPC scattering (μg/m³)
DateTimeUTC,F1_M11,P_M11,Q1_M11,Q2_M11,T1_M11,T2_M11,T3_M11,T4_M11,T5_M11,U1_M11,ZSPAN_M11,X0_M11,X2_M11,X1_M11
2023-10-19 19:00:00,SystemResetWarning,0834.5,5.01,000.00,028.3,024.6,000.0,036.7,029.8,16.5,0000.0,0011.19,0002.91,0001.59
2023-10-19 19:01:00,SystemResetWarning,0834.5,5.00,000.00,028.2,024.9,000.0,036.7,029.7,16.3,0000.0,0011.92,0002.80,0001.59
2023-10-19 19:02:00,SystemResetWarning,0834.4,5.00,000.00,028.2,025.4,000.0,036.7,029.8,16.2,0000.0,0013.03,0002.81,0001.56
2023-10-19 19:03:00,SystemResetWarning,0834.4,5.00,000.00,028.2,025.8,000.0,036.7,029.9,16.2,0000.0,0012.92,0002.81,0001.55
2023-10-19 19:04:00,SystemResetWarning,0834.4,5.00,000.00,028.2,026.1,000.0,036.7,029.9,16.2,0000.0,0013.82,0002.82,0001.55
2023-10-19 19:05:00,SystemResetWarning,0834.4,5.00,000.00,028.2,026.4,000.0,036.7,030.0,16.2,0000.0,0013.39,0002.87,0001.55
2023-10-19 19:06:00,SystemResetWarning,0834.4,5.00,000.00,028.3,026.7,000.0,036.7,030.1,16.2,0000.0,0013.85,0002.85,0001.55
2023-10-19 19:07:00,SystemResetWarning,0834.4,5.00,000.00,028.3,027.0,000.0,036.7,030.2,16.3,0000.0,0014.08,0002.79,0001.56
2023-10-19 19:08:00,SystemResetWarning,0834.3,5.00,000.00,028.4,027.2,000.0,036.8,030.2,16.2,0000.0,0014.41,0002.78,0001.56
2023-10-19 19:09:00,SystemResetWarning,0834.3,5.00,000.00,028.4,027.3,000.0,036.8,030.3,16.2,0000.0,0013.88,0002.76,0001.58
2023-10-19 19:10:00,SystemResetWarning,0834.3,4.97,000.00,028.4,026.4,000.0,036.8,030.3,16.3,0000.0,0014.25,0002.79,0001.58
2023-10-19 19:11:00,SystemResetWarning,0834.7,5.00,000.00,028.4,024.7,000.0,036.7,030.0,16.1,0000.0,0014.51,0002.74,0001.58
2023-10-19 19:12:00,SystemResetWarning,0834.5,5.01,000.00,028.3,024.3,000.0,036.6,029.9,16.4,0000.0,0013.46,0002.74,0001.58
2023-10-19 19:13:00,SystemResetWarning,0834.2,5.02,000.00,028.2,024.6,000.0,036.6,029.8,16.6,0000.0,0012.28,0002.71,0001.58
2023-10-19 19:14:00,SystemResetWarning,0834.2,5.00,000.00,028.2,025.0,000.0,036.6,029.7,16.1,0000.0,0011.41,0002.69,0001.58
2023-10-19 19:15:00,SystemResetWarning,0834.3,5.00,000.00,028.2,025.5,000.0,036.7,029.8,16.4,0000.0,0010.24,0002.69,0001.59
2023-10-19 19:16:00,SystemResetWarning,0834.3,5.00,000.00,028.2,025.9,000.0,036.7,029.8,16.3,0000.0,0009.45,0002.59,0001.58
2023-10-19 19:17:00,SystemResetWarning,0834.4,5.01,000.00,028.2,026.2,000.0,036.7,029.9,16.3,0000.0,0008.83,0002.57,0001.58
2023-10-19 19:18:00,SystemResetWarning,0834.4,4.99,000.00,028.2,026.5,000.0,036.7,030.0,16.1,0000.0,0008.53,0002.58,0001.55
2023-10-19 19:19:00,SystemResetWarning,0834.4,5.00,000.00,028.3,026.8,000.0,036.7,030.1,15.9,0000.0,0008.50,0002.57,0001.53
2023-10-19 19:20:00,SystemResetWarning,0834.4,5.00,000.00,028.3,027.0,000.0,036.7,030.2,15.5,0000.0,0008.77,0002.58,0001.52
2023-10-19 19:21:00,SystemResetWarning,0834.6,5.00,000.00,028.4,027.2,000.0,036.7,030.2,15.8,0000.0,0008.42,0002.55,0001.50
2023-10-19 19:22:00,SystemResetWarning,0834.6,5.00,000.00,028.4,027.3,000.0,036.8,030.3,15.3,0000.0,0007.77,0002.55,0001.49
2023-10-19 19:23:00,SystemResetWarning,0834.3,4.99,000.00,028.4,026.1,000.0,036.7,030.2,15.3,0000.0,0007.77,0002.54,0001.48
2023-10-19 19:24:00,SystemResetWarning,0834.3,5.00,000.00,028.3,024.5,000.0,036.7,030.0,15.5,0000.0,0008.23,0002.54,0001.47
2023-10-19 19:25:00,SystemResetWarning,0834.3,5.01,000.00,028.3,024.4,000.0,036.6,029.9,15.4,0000.0,0007.88,0002.58,0001.48
2023-10-19 19:26:00,SystemResetWarning,0834.2,5.01,000.00,028.2,024.7,000.0,036.6,029.7,15.4,0000.0,0009.16,0002.65,0001.48
2023-10-19 19:27:00,SystemResetWarning,0834.2,5.00,000.00,028.1,025.1,000.0,036.6,029.7,15.5,0000.0,0011.08,0002.88,0001.50
2023-10-19 19:28:00,SystemResetWarning,0834.2,5.00,000.00,028.1,025.5,000.0,036.6,029.8,15.7,0000.0,0012.13,0002.94,0001.50
2023-10-19 19:29:00,SystemResetWarning,0834.2,5.00,000.00,028.1,025.9,000.0,036.6,029.9,15.8,0000.0,0013.42,0002.97,0001.51
2023-10-19 19:30:00,SystemResetWarning,0834.2,5.00,000.00,028.2,026.3,000.0,036.6,029.9,15.9,0000.0,0013.97,0003.04,0001.50
2023-10-19 19:31:00,SystemResetWarning,0834.2,5.00,000.00,028.2,026.6,000.0,036.7,030.0,16.1,0000.0,0013.74,0003.08,0001.51
2023-10-19 19:32:00,SystemResetWarning,0834.2,4.99,000.00,028.3,026.9,000.0,036.7,030.1,15.9,0000.0,0013.82,0003.09,0001.51
2023-10-19 19:33:00,SystemResetWarning,0834.2,4.99,000.00,028.3,027.1,000.0,036.7,030.2,15.9,0000.0,0013.89,0003.10,0001.52
2023-10-19 19:34:00,SystemResetWarning,0834.1,5.00,000.00,028.4,027.3,000.0,036.7,030.2,15.8,0000.0,0013.98,0003.12,0001.54
2023-10-19 19:35:00,SystemResetWarning,0834.1,4.99,000.00,028.4,026.5,000.0,036.7,030.2,15.9,0000.0,0013.45,0003.14,0001.56
2023-10-19 19:36:00,SystemResetWarning,0834.1,5.01,000.00,028.3,024.8,000.0,036.6,030.0,15.7,0000.0,0013.81,0003.16,0001.59
2023-10-19 19:37:00,SystemResetWarning,0834.1,5.02,000.00,028.3,024.3,000.0,036.6,029.9,15.7,0000.0,0013.23,0003.14,0001.59
2023-10-19 19:38:00,SystemResetWarning,0834.1,5.00,000.00,028.2,024.6,000.0,036.6,029.7,15.9,0000.0,0011.71,0003.08,0001.56
2023-10-19 19:39:00,SystemResetWarning,0834.1,5.00,000.00,028.1,025.0,000.0,036.6,029.7,16.0,0000.0,0010.74,0003.04,0001.55
2023-10-19 19:40:00,SystemResetWarning,0834.1,4.99,000.00,028.1,025.4,000.0,036.6,029.7,16.1,0000.0,0009.42,0003.00,0001.54
2023-10-19 19:41:00,SystemResetWarning,0834.1,5.00,000.00,028.1,025.8,000.0,036.6,029.8,16.1,0000.0,0008.63,0002.98,0001.55
2023-10-19 19:42:00,SystemResetWarning,0834.1,5.00,000.00,028.1,026.2,000.0,036.6,029.9,15.9,0000.0,0008.42,0002.91,0001.55
2023-10-19 19:43:00,SystemResetWarning,0834.1,5.00,000.00,028.2,026.5,000.0,036.6,030.0,15.7,0000.0,0009.33,0002.90,0001.56
2023-10-19 19:44:00,SystemResetWarning,0834.1,5.00,000.00,028.2,026.8,000.0,036.6,030.0,15.8,0000.0,0009.56,0002.96,0001.56
2023-10-19 19:45:00,SystemResetWarning,0834.1,4.99,000.00,028.3,027.0,000.0,036.7,030.1,15.9,0000.0,0009.88,0002.96,0001.55
2023-10-19 19:46:00,SystemResetWarning,0834.1,5.01,000.00,028.3,027.2,000.0,036.7,030.2,15.8,0000.0,0009.80,0003.03,0001.53
2023-10-19 19:47:00,SystemResetWarning,0834.1,5.00,000.00,028.4,026.9,000.0,036.7,030.3,15.9,0000.0,0009.82,0002.96,0001.50
2023-10-19 19:48:00,SystemResetWarning,0834.0,4.99,000.00,028.3,025.2,000.0,036.6,030.1,15.9,0000.0,0009.58,0002.92,0001.49
2023-10-19 19:49:00,SystemResetWarning,0833.9,5.00,000.00,028.2,024.3,000.0,036.6,029.9,15.9,0000.0,0010.34,0002.85,0001.49
2023-10-19 19:50:00,SystemResetWarning,0834.0,5.01,000.00,028.2,024.5,000.0,036.5,029.8,15.9,0000.0,0011.04,0002.75,0001.48
2023-10-19 19:51:00,SystemResetWarning,0834.0,5.00,000.00,028.1,024.9,000.0,036.5,029.7,16.0,0000.0,0010.90,0002.76,0001.48
2023-10-19 19:52:00,SystemResetWarning,0833.9,5.00,000.00,028.1,025.3,000.0,036.6,029.7,15.9,0000.0,0011.01,0002.71,0001.46
2023-10-19 19:53:00,SystemResetWarning,0834.0,5.00,000.00,028.1,025.7,000.0,036.6,029.8,16.0,0000.0,0011.84,0002.69,0001.45
2023-10-19 19:54:00,SystemResetWarning,0834.0,5.00,000.00,028.1,026.1,000.0,036.6,029.9,16.0,0000.0,0011.00,0002.68,0001.43
2023-10-19 19:55:00,SystemResetWarning,0833.9,5.00,000.00,028.1,026.4,000.0,036.6,029.9,15.8,0000.0,0011.64,0002.61,0001.42
2023-10-19 19:56:00,SystemResetWarning,0833.9,5.00,000.00,028.2,026.7,000.0,036.6,030.0,16.0,0000.0,0011.50,0002.51,0001.40
2023-10-19 19:57:00,SystemResetWarning,0833.9,5.00,000.00,028.2,026.9,000.0,036.6,030.1,15.9,0000.0,0012.15,0002.45,0001.39
2023-10-19 19:58:00,SystemResetWarning,0834.0,4.99,000.00,028.3,027.1,000.0,036.7,030.2,15.5,0000.0,0012.00,0002.39,0001.38
2023-10-19 19:59:00,SystemResetWarning,0834.0,5.00,000.00,028.3,027.1,000.0,036.7,030.2,15.6,0000.0,0012.16,0002.33,0001.35
